Flag Weather past 2 weeks in Gladbeck, North Rhine-Westphalia, Germany

Now
57 °F

Overcast.


Feels Like: 56 °F
Forecast: 40 / 50 °F
Wind: 6 mph from Southeast

Location: Duesseldorf

Current Time: Nov 23, 2014 at 1:42:15 PM

Latest Report: Nov 23, 2014 at 1:00 PM


Visibility: 22 mi

Pressure: 30.05 "Hg

Humidity: 70%

Dew point: 47 °F

Location of GladbeckLocation

Historic Weather in Gladbeck — Graph

°F

Gladbeck temperature yesterday

Maximum temperature yesterday: 52 °F (at 3:00 PM)
Minimum temperature yesterday: 42 °F (at 2:00 AM)
Average temperature yesterday: 47 °F

Past Weeks' High & Low Weather Summary

 TemperatureHumidityPressure
High57 °F (Nov 8, 2:00 PM)99% (Nov 13, 3:00 AM)30.34 "Hg (Nov 13, 3:00 AM)
Low33 °F (Nov 21, 3:00 AM)61% (Nov 8, 2:00 PM)29.53 "Hg (Nov 16, 5:00 PM)
Average48 °F85%29.87 "Hg
* Reported Nov 8 12:00 Noon — Nov 23 12:00 Noon, Gladbeck, Weather by CustomWeather, © 2014

Note: Actual official high and low records may vary slightly from our data, if they occured in-between our weather recording intervals... More about our weather records

Advertising

Gladbeck weather history for previous 24 hours

 ConditionsComfort  
Time TempWeatherWind HumidityBarometerVisibility
12:00 PM
Nov 23
55 °FOvercast.7 mph72%30.07 "Hg22 mi
11:00 AM53 °FPartly sunny.6 mph74%30.09 "Hg22 mi
10:00 AM51 °FPartly sunny.6 mph78%30.08 "Hg19 mi
9:00 AM50 °FPartly sunny.3 mph81%30.09 "Hg19 mi
8:00 AM50 °FPassing clouds.5 mph82%30.09 "Hg19 mi
7:00 AM49 °FPassing clouds.7 mph83%30.07 "Hg16 mi
6:00 AM50 °FOvercast.7 mph81%30.08 "Hg16 mi
5:00 AM50 °FOvercast.6 mph82%30.09 "Hg16 mi
3:00 AM50 °FOvercast.6 mph83%30.10 "Hg16 mi
2:00 AM49 °FOvercast.7 mph82%30.09 "Hg16 mi
1:00 AM50 °FOvercast.6 mph82%30.10 "Hg16 mi
12:00 AM50 °FOvercast.5 mph81%30.10 "Hg16 mi
11:00 PM
Nov 22
50 °FOvercast.6 mph81%30.09 "Hg16 mi
9:00 PM49 °FPassing clouds.7 mph83%30.08 "Hg16 mi
8:00 PM50 °FPassing clouds.6 mph82%30.07 "Hg16 mi
7:00 PM49 °FPassing clouds.6 mph83%30.07 "Hg16 mi
6:00 PM50 °FPassing clouds.7 mph82%30.06 "Hg16 mi
5:00 PM51 °FPassing clouds.5 mph81%30.07 "Hg9 mi
4:00 PM52 °FPassing clouds.5 mph79%30.06 "Hg11 mi
3:00 PM52 °FPassing clouds.6 mph78%30.07 "Hg14 mi
2:00 PM50 °FScattered clouds.5 mph79%30.08 "Hg14 mi
1:00 PM51 °FScattered clouds.6 mph76%30.07 "Hg12 mi
Weather by CustomWeather, © 2014

See weather overviewHow to use our weather pages